WetterOnline ( http://www.wetteronline.de )

Wetter aktuell Südschwarzwald (in 1400m)

Aktuelles Wetter: Freiburg/Flugplatz (236m)

6-stündlich | Neueste Meldungen
Ortszeit Temperatur Wetter
Do, 21.02. 1:00 1.8° C leicht bewölkt
Mi, 20.02. 19:00 8.3° C wolkig
Mi, 20.02. 13:00 10.8° C bewölkt
Mi, 20.02. 7:00 2.1° C wolkig
Mi, 20.02. 1:00 3.1° C bewölkt
Di, 19.02. 19:00 9.8° C bedeckt
Di, 19.02. 13:00 12.2° C wolkig
Di, 19.02. 7:00 9.4° C wolkig
Ortszeit Temperatur Wetter
Do, 21.02. 5:00 0.5° C leicht bewölkt
Do, 21.02. 4:50 0.5° C leicht bewölkt
Do, 21.02. 4:40 0.3° C leicht bewölkt
Do, 21.02. 4:30 0.5° C wolkig
Do, 21.02. 4:20 0.5° C wolkig
Do, 21.02. 4:10 0.8° C wolkig
Do, 21.02. 4:00 0.9° C leicht bewölkt
Do, 21.02. 3:30 0.6° C wolkenlos
Do, 21.02. 3:00 0.9° C wolkenlos
Do, 21.02. 2:30 1.3° C fast wolkenlos
Do, 21.02. 2:00 1.5° C wolkig
Ortszeit Relative Feuchte Sichtweite
Do, 21.02. 1:00 92% 7 km
Mi, 20.02. 19:00 70% 26 km
Mi, 20.02. 13:00 66% 11 km
Mi, 20.02. 7:00 95% 6 km
Mi, 20.02. 1:00 93% 6 km
Di, 19.02. 19:00 68% 22 km
Di, 19.02. 13:00 51% 40 km
Di, 19.02. 7:00 54% 55 km
Ortszeit Relative Feuchte Sichtweite
Do, 21.02. 5:00 96% 3.4 km
Do, 21.02. 4:50 96% -
Do, 21.02. 4:40 96% -
Do, 21.02. 4:30 95% 3.4 km
Do, 21.02. 4:20 95% -
Do, 21.02. 4:10 96% -
Do, 21.02. 4:00 92% 5.0 km
Do, 21.02. 3:30 94% 6 km
Do, 21.02. 3:00 95% 4.3 km
Do, 21.02. 2:30 92% 8 km
Do, 21.02. 2:00 90% 10 km
Ortszeit Niederschlagsmenge Niederschlagsart
Do, 21.02. 1:00 0.0 l/m2 in 6 Std. -
Mi, 20.02. 19:00 0.0 l/m2 in 12 Std. -
Mi, 20.02. 13:00 0.0 l/m2 in 6 Std. -
Mi, 20.02. 7:00 0.0 l/m2 in 12 Std. -
Mi, 20.02. 1:00 0.0 l/m2 in 6 Std. -
Di, 19.02. 19:00 0.0 l/m2 in 12 Std. -
Di, 19.02. 13:00 0.0 l/m2 in 6 Std. -
Di, 19.02. 7:00 0.0 l/m2 in 12 Std. -
Ortszeit Niederschlagsmenge Niederschlagsart
Do, 21.02. 5:00 0.0 l/m2 in 1 Std. -
Do, 21.02. 4:50 keine Meldung -
Do, 21.02. 4:40 keine Meldung -
Do, 21.02. 4:30 0.0 l/m2 in 1 Std. -
Do, 21.02. 4:20 keine Meldung -
Do, 21.02. 4:10 keine Meldung -
Do, 21.02. 4:00 0.0 l/m2 in 1 Std. -
Do, 21.02. 3:30 0.0 l/m2 in 1 Std. -
Do, 21.02. 3:00 0.0 l/m2 in 1 Std. -
Do, 21.02. 2:30 0.0 l/m2 in 1 Std. -
Do, 21.02. 2:00 0.0 l/m2 in 1 Std. -
Ortszeit Stärke Spitze Richtung
km/h Bft. km/h Grad Sektor
Do, 21.02. 1:00 2 1 13 350° N
Mi, 20.02. 19:00 6 1 13 150° SO
Mi, 20.02. 13:00 4 1 11 40° NO
Mi, 20.02. 7:00 4 1 11 170° S
Mi, 20.02. 1:00 4 1 11 340° N
Di, 19.02. 19:00 6 1 31 20° N
Di, 19.02. 13:00 22 4 36 230° SW
Di, 19.02. 7:00 20 4 35 210° SW
Ortszeit Stärke Spitze Richtung
km/h Bft. km/h Grad Sektor
Do, 21.02. 5:00 0 0 4 - -
Do, 21.02. 4:50 0 0 - 50° NO
Do, 21.02. 4:40 0 0 - 20° N
Do, 21.02. 4:30 0 0 4 - -
Do, 21.02. 4:20 2 1 - 310° NW
Do, 21.02. 4:10 0 0 - 250° W
Do, 21.02. 4:00 0 0 4 - -
Do, 21.02. 3:30 2 1 4 40° NO
Do, 21.02. 3:00 0 0 4 - -
Do, 21.02. 2:30 0 0 4 - -
Do, 21.02. 2:00 4 1 4 170° S
Ortszeit Untergrenze Bedeckung Gattung
total tief tief mittel hoch
Do, 21.02. 1:00 4200 m 3/8 3/8 - - -
Mi, 20.02. 19:00 1800 m 8/8 1/8 - - -
Mi, 20.02. 13:00 1200 m 7/8 7/8 - - -
Mi, 20.02. 7:00 9000 m 8/8 0/8 - - -
Mi, 20.02. 1:00 1200 m 8/8 7/8 - - -
Di, 19.02. 19:00 1140 m 8/8 8/8 - - -
Di, 19.02. 13:00 2100 m 7/8 3/8 - - -
Di, 19.02. 7:00 1800 m 7/8 1/8 - - -
Ortszeit Bedeckungsgrad in Achtel und Wolkenuntergrenze
Do, 21.02. 5:00 3(10500m)
Do, 21.02. 4:50 3(10500m)
Do, 21.02. 4:40 4(10500m)
Do, 21.02. 4:30 7(10500m)
Do, 21.02. 4:20 7(10500m)
Do, 21.02. 4:10 8(10500m)
Do, 21.02. 4:00 6(10500m)
Do, 21.02. 3:30 keine Wolken
Do, 21.02. 3:00 keine Wolken
Do, 21.02. 2:30 1(10500m)
Do, 21.02. 2:00 7(10500m)
Ortszeit Luftdruck NN (hPa) Tendenz (hPa in 3 Std.)
Do, 21.02. 1:00 1028 + 0,7
Mi, 20.02. 19:00 1026 + 0,4
Mi, 20.02. 13:00 1026 + 0,6
Mi, 20.02. 7:00 1025 + 0,5
Mi, 20.02. 1:00 1024 + 0,2
Di, 19.02. 19:00 1023 + 1,2
Di, 19.02. 13:00 1022 + 0,3
Di, 19.02. 7:00 1021 + 0,4
Ortszeit Luftdruck NN (hPa) Tendenz (hPa in 3 Std.)
Do, 21.02. 5:00 1030 + 0,5
Do, 21.02. 4:50 1030 keine Meldung
Do, 21.02. 4:40 1029 keine Meldung
Do, 21.02. 4:30 1029 + 0,3
Do, 21.02. 4:20 1029 keine Meldung
Do, 21.02. 4:10 1029 keine Meldung
Do, 21.02. 4:00 1029 + 0,6
Do, 21.02. 3:30 1029 + 0,8
Do, 21.02. 3:00 1029 + 0,9
Do, 21.02. 2:30 1029 + 1,0
Do, 21.02. 2:00 1029 + 1,0
Ortszeit Schneehöhe (cm)
Do, 21.02. 1:00 0
Mi, 20.02. 19:00 0
Mi, 20.02. 13:00 0
Mi, 20.02. 7:00 0
Mi, 20.02. 1:00 0
Di, 19.02. 19:00 0
Di, 19.02. 13:00 0
Di, 19.02. 7:00 0
Ortszeit Schneehöhe (cm)
Do, 21.02. 5:00 0
Do, 21.02. 4:50 0
Do, 21.02. 4:40 0
Do, 21.02. 4:30 0
Do, 21.02. 4:20 0
Do, 21.02. 4:10 0
Do, 21.02. 4:00 0
Do, 21.02. 3:30 0
Do, 21.02. 3:00 0
Do, 21.02. 2:30 0
Do, 21.02. 2:00 0
Link zu dieser Seite / Seite empfehlen

Das Wetter in ...